Location: Hopewell Observatory
(38.8698°N, 77.6988°W)
Time: 06:17:05
(UTC-04:00)

Cosmos 1833 - Pass Details

Date: 26 May 2018
Orbit: 827 x 871 km, 70.9° (Epoch: 21 October)

Event Time Altitude Azimuth Distance (km) Brightness Sun altitude
Rises 21:47:13 0° 196° (SSW) 3,423 7.1 -13.7°
Reaches altitude 10° 21:49:41 10° 195° (SSW) 2,484 6.4 -14.1°
Maximum altitude 21:55:22 75° 110° (ESE) 881 4.1 -14.9°
Drops below altitude 10° 22:01:02 10° 26° (NNE) 2,470 6.9 -15.6°
Sets 22:03:29 0° 25° (NNE) 3,402 7.6 -16.0°
